EXS28L EGCC-LEIB

Flight info

Callsign EXS28L
Flight time N/A
Altitude 35000
Route LISTO P18 TELBA L151 KIDLI UN859 SOPIL DCT BALAN DCT EVPOK DCT NARAK DCT GAI DCT LOMRA DCT ROCAN DCT PUMAL N859 BCN Z174 CORDA
Aircraft A21N/M-SDE2E3FGHIRWXY/LB1

Departure

Time 2026-05-05 20:18
Airport Manchester Airport (EGCC)

Arrival

Time N/A
Airport Ibiza Airport (LEIB)
Time Latitude Longitude Altitude Speed Heading
2026-05-05 19:32 53.36694 -2.28464 261 ft 0 kts 135°
2026-05-05 20:01 53.36709 -2.28488 260 ft 4 kts 139°
2026-05-05 20:01 53.36730 -2.28515 260 ft 4 kts 147°
2026-05-05 20:01 53.36753 -2.28536 260 ft 4 kts 164°
2026-05-05 20:01 53.36777 -2.28537 260 ft 4 kts 211°
2026-05-05 20:02 53.36785 -2.28526 260 ft 1 kts 224°
2026-05-05 20:06 53.36776 -2.28542 260 ft 5 kts 227°
2026-05-05 20:07 53.36750 -2.28585 260 ft 6 kts 226°
2026-05-05 20:07 53.36718 -2.28637 260 ft 7 kts 224°
2026-05-05 20:07 53.36686 -2.28689 260 ft 6 kts 224°
2026-05-05 20:07 53.36656 -2.28739 260 ft 6 kts 224°
2026-05-05 20:08 53.36649 -2.28751 260 ft 0 kts 223°
2026-05-05 20:08 53.36647 -2.28754 260 ft 3 kts 223°
2026-05-05 20:09 53.36625 -2.28783 260 ft 6 kts 205°
2026-05-05 20:09 53.36565 -2.28735 260 ft 14 kts 134°
2026-05-05 20:09 53.36492 -2.28612 260 ft 15 kts 134°
2026-05-05 20:09 53.36422 -2.28490 260 ft 15 kts 125°
2026-05-05 20:10 53.36374 -2.28336 260 ft 16 kts 134°
2026-05-05 20:10 53.36336 -2.28273 260 ft 0 kts 133°
2026-05-05 20:10 53.36335 -2.28272 260 ft 1 kts 133°
2026-05-05 20:11 53.36312 -2.28231 260 ft 8 kts 134°
2026-05-05 20:11 53.36248 -2.28141 260 ft 13 kts 160°
2026-05-05 20:11 53.36155 -2.28141 260 ft 14 kts 149°
2026-05-05 20:11 53.36077 -2.28028 260 ft 15 kts 138°
2026-05-05 20:12 53.35999 -2.27913 260 ft 13 kts 139°
2026-05-05 20:12 53.35913 -2.27849 261 ft 14 kts 178°
2026-05-05 20:12 53.35812 -2.27864 256 ft 15 kts 186°
2026-05-05 20:12 53.35706 -2.27881 250 ft 16 kts 185°
2026-05-05 20:13 53.35606 -2.27941 245 ft 16 kts 229°
2026-05-05 20:13 53.35531 -2.28083 239 ft 17 kts 219°
2026-05-05 20:13 53.35421 -2.28158 241 ft 18 kts 187°
2026-05-05 20:13 53.35300 -2.28215 238 ft 18 kts 209°
2026-05-05 20:14 53.35203 -2.28359 240 ft 19 kts 232°
2026-05-05 20:14 53.35148 -2.28474 233 ft 19 kts 231°
2026-05-05 20:14 53.35061 -2.28655 236 ft 20 kts 231°
2026-05-05 20:14 53.34930 -2.28890 231 ft 21 kts 226°
2026-05-05 20:15 53.34861 -2.29009 225 ft 21 kts 227°
2026-05-05 20:15 53.34753 -2.29222 222 ft 17 kts 229°
2026-05-05 20:15 53.34698 -2.29311 219 ft 7 kts 211°
2026-05-05 20:15 53.34676 -2.29329 216 ft 3 kts 200°
2026-05-05 20:16 53.34648 -2.29342 217 ft 5 kts 189°
2026-05-05 20:16 53.34577 -2.29324 218 ft 13 kts 155°
2026-05-05 20:16 53.34556 -2.29190 219 ft 14 kts 58°
2026-05-05 20:16 53.34595 -2.29106 222 ft 12 kts 51°
2026-05-05 20:17 53.34631 -2.29031 222 ft 13 kts 51°
2026-05-05 20:17 53.34850 -2.28580 235 ft 81 kts 51°
2026-05-05 20:17 53.35347 -2.27550 248 ft 142 kts 50°
2026-05-05 20:17 53.36018 -2.26170 590 ft 152 kts 51°
2026-05-05 20:18 53.36903 -2.24343 1374 ft 153 kts 51°
2026-05-05 20:18 53.37589 -2.22843 1717 ft 174 kts 60°
2026-05-05 20:18 53.37715 -2.20785 1987 ft 199 kts 106°
2026-05-05 20:18 53.36818 -2.18826 2202 ft 234 kts 143°
2026-05-05 20:19 53.35257 -2.17554 2554 ft 259 kts 154°
2026-05-05 20:19 53.33497 -2.16713 3241 ft 270 kts 177°
2026-05-05 20:19 53.31608 -2.17037 4048 ft 272 kts 187°
2026-05-05 20:19 53.29735 -2.17420 4921 ft 274 kts 186°
2026-05-05 20:20 53.27820 -2.17752 5706 ft 278 kts 186°
2026-05-05 20:20 53.25891 -2.18069 6476 ft 280 kts 186°
2026-05-05 20:20 53.23940 -2.18383 7249 ft 283 kts 186°
2026-05-05 20:20 53.21977 -2.18696 8030 ft 285 kts 186°
2026-05-05 20:21 53.19994 -2.19011 8812 ft 288 kts 186°
2026-05-05 20:21 53.18001 -2.19327 9590 ft 290 kts 186°
2026-05-05 20:21 53.15972 -2.19649 10298 ft 297 kts 186°
2026-05-05 20:21 53.13863 -2.19982 10674 ft 315 kts 187°
2026-05-05 20:22 53.11603 -2.20341 10980 ft 335 kts 187°
2026-05-05 20:22 53.10010 -2.20590 11177 ft 347 kts 186°
2026-05-05 20:22 53.07540 -2.20977 11455 ft 365 kts 187°
2026-05-05 20:22 53.04987 -2.21377 11702 ft 381 kts 187°
2026-05-05 20:23 53.02270 -2.21804 12073 ft 392 kts 187°
2026-05-05 20:23 52.99538 -2.22232 12625 ft 395 kts 187°
2026-05-05 20:23 52.96792 -2.22660 13191 ft 398 kts 187°
2026-05-05 20:23 52.94066 -2.23082 13715 ft 400 kts 187°
2026-05-05 20:24 52.91281 -2.23510 14238 ft 403 kts 187°
2026-05-05 20:24 52.88480 -2.23940 14733 ft 405 kts 187°
2026-05-05 20:24 52.85680 -2.24497 15192 ft 407 kts 192°
2026-05-05 20:24 52.82909 -2.25508 15649 ft 408 kts 194°
2026-05-05 20:25 52.80135 -2.26591 16083 ft 410 kts 195°
2026-05-05 20:25 52.77352 -2.27677 16501 ft 413 kts 195°
2026-05-05 20:25 52.74550 -2.28763 16913 ft 415 kts 195°
2026-05-05 20:25 52.71724 -2.29845 17312 ft 417 kts 194°
2026-05-05 20:26 52.68838 -2.30487 17699 ft 422 kts 183°
2026-05-05 20:26 52.65909 -2.30005 18074 ft 427 kts 168°
2026-05-05 20:26 52.63124 -2.28305 18440 ft 431 kts 153°
2026-05-05 20:26 52.60576 -2.25676 18810 ft 434 kts 147°
2026-05-05 20:27 52.58077 -2.22850 19177 ft 436 kts 147°
2026-05-05 20:27 52.55567 -2.20027 19532 ft 438 kts 147°
2026-05-05 20:27 52.53033 -2.17227 19879 ft 441 kts 147°
2026-05-05 20:27 52.50473 -2.14425 20237 ft 442 kts 148°
2026-05-05 20:28 52.47907 -2.11630 20584 ft 445 kts 148°
2026-05-05 20:28 52.45319 -2.08819 20933 ft 447 kts 148°
2026-05-05 20:28 52.42718 -2.05998 21270 ft 449 kts 148°
2026-05-05 20:28 52.40106 -2.03166 21628 ft 451 kts 148°
2026-05-05 20:29 52.37485 -2.00326 21977 ft 453 kts 148°
2026-05-05 20:29 52.34847 -1.97479 22332 ft 456 kts 148°
2026-05-05 20:29 52.32193 -1.94619 22692 ft 458 kts 148°
2026-05-05 20:29 52.29521 -1.91744 23046 ft 460 kts 148°
2026-05-05 20:30 52.26843 -1.88867 23399 ft 463 kts 148°
2026-05-05 20:30 52.24147 -1.85973 23752 ft 465 kts 148°
2026-05-05 20:30 52.21435 -1.83062 24106 ft 467 kts 149°
2026-05-05 20:30 52.18715 -1.80147 24449 ft 469 kts 149°
2026-05-05 20:31 52.15982 -1.77226 24802 ft 471 kts 149°
2026-05-05 20:31 52.13246 -1.74306 25221 ft 470 kts 149°
2026-05-05 20:31 52.10517 -1.71398 25704 ft 468 kts 149°
2026-05-05 20:31 52.07800 -1.68502 26173 ft 465 kts 149°
2026-05-05 20:32 52.05107 -1.65637 26633 ft 463 kts 149°
2026-05-05 20:32 52.02419 -1.62775 27081 ft 461 kts 149°
2026-05-05 20:32 51.99773 -1.59966 27497 ft 459 kts 149°
2026-05-05 20:32 51.97069 -1.57111 27929 ft 457 kts 149°
2026-05-05 20:33 51.94450 -1.54348 28343 ft 454 kts 149°
2026-05-05 20:33 51.91807 -1.51564 28753 ft 452 kts 149°
2026-05-05 20:33 51.89172 -1.48791 29168 ft 450 kts 149°
2026-05-05 20:33 51.86554 -1.46039 29556 ft 448 kts 149°
2026-05-05 20:34 51.83946 -1.43297 29939 ft 446 kts 149°
2026-05-05 20:34 51.81345 -1.40569 30317 ft 444 kts 149°
2026-05-05 20:34 51.78750 -1.37872 30657 ft 443 kts 151°
2026-05-05 20:34 51.76021 -1.35623 30950 ft 439 kts 160°
2026-05-05 20:35 51.73139 -1.34022 31223 ft 438 kts 164°
2026-05-05 20:35 51.70233 -1.32576 31511 ft 437 kts 165°
2026-05-05 20:35 51.67325 -1.31138 31798 ft 437 kts 165°
2026-05-05 20:35 51.64427 -1.29689 32055 ft 437 kts 164°
2026-05-05 20:36 51.61528 -1.28231 32316 ft 436 kts 164°
2026-05-05 20:36 51.58629 -1.26767 32565 ft 436 kts 164°
2026-05-05 20:36 51.55726 -1.25301 32801 ft 436 kts 164°
2026-05-05 20:36 51.52833 -1.23843 33029 ft 436 kts 164°
2026-05-05 20:37 51.49943 -1.22369 33241 ft 436 kts 162°
2026-05-05 20:37 51.47130 -1.20529 33455 ft 436 kts 157°
2026-05-05 20:37 51.44372 -1.18506 33659 ft 436 kts 156°
2026-05-05 20:37 51.41656 -1.16488 33849 ft 436 kts 156°
2026-05-05 20:38 51.38867 -1.14422 34019 ft 436 kts 156°
2026-05-05 20:38 51.36146 -1.12414 34212 ft 436 kts 156°
2026-05-05 20:38 51.33384 -1.10388 34374 ft 436 kts 156°
2026-05-05 20:38 51.30627 -1.08368 34517 ft 436 kts 156°
2026-05-05 20:39 51.27871 -1.06352 34661 ft 437 kts 156°
2026-05-05 20:39 51.25109 -1.04334 34792 ft 437 kts 156°
2026-05-05 20:39 51.22343 -1.02316 34938 ft 437 kts 156°
2026-05-05 20:40 51.16796 -0.98275 35004 ft 439 kts 156°
2026-05-05 20:40 51.11239 -0.94239 34972 ft 439 kts 156°
2026-05-05 20:41 51.05687 -0.90217 34969 ft 439 kts 156°
2026-05-05 20:41 51.00129 -0.86200 34978 ft 438 kts 156°
2026-05-05 20:42 50.94568 -0.82194 34981 ft 438 kts 156°
2026-05-05 20:42 50.89008 -0.78201 34967 ft 439 kts 156°
2026-05-05 20:43 50.83578 -0.73769 34962 ft 440 kts 148°
2026-05-05 20:43 50.78447 -0.68520 34960 ft 439 kts 148°
2026-05-05 20:44 50.73311 -0.63269 34951 ft 439 kts 148°
2026-05-05 20:44 50.68175 -0.58060 34956 ft 439 kts 148°
2026-05-05 20:45 50.60447 -0.50254 34950 ft 440 kts 148°
2026-05-05 20:45 50.55324 -0.45095 34941 ft 440 kts 148°
2026-05-05 20:46 50.50170 -0.39918 34948 ft 440 kts 148°
2026-05-05 20:46 50.45008 -0.34746 34954 ft 440 kts 148°
2026-05-05 20:47 50.39842 -0.29586 34942 ft 440 kts 148°
2026-05-05 20:47 50.34680 -0.24441 34939 ft 440 kts 148°
2026-05-05 20:48 50.29515 -0.19309 34937 ft 440 kts 148°
2026-05-05 20:48 50.24341 -0.14179 34931 ft 440 kts 148°
2026-05-05 20:49 50.19179 -0.09075 34931 ft 439 kts 148°
2026-05-05 20:49 50.14003 -0.03974 34930 ft 440 kts 148°
2026-05-05 20:50 50.08621 0.00508 34921 ft 439 kts 162°
2026-05-05 20:50 50.02763 0.02932 34919 ft 433 kts 165°
2026-05-05 20:51 49.96947 0.05151 34920 ft 433 kts 165°
2026-05-05 20:51 49.91105 0.07437 34921 ft 433 kts 165°
2026-05-05 20:52 49.85262 0.09729 34913 ft 433 kts 165°
2026-05-05 20:52 49.79415 0.12012 34910 ft 433 kts 165°
2026-05-05 20:53 49.73571 0.14291 34910 ft 433 kts 165°
2026-05-05 20:53 49.67722 0.16565 34910 ft 433 kts 165°
2026-05-05 20:54 49.61891 0.18916 34910 ft 433 kts 164°
2026-05-05 20:54 49.56056 0.21275 34911 ft 433 kts 165°
2026-05-05 20:55 49.50226 0.23617 34903 ft 433 kts 165°
2026-05-05 20:55 49.44421 0.25945 34902 ft 434 kts 165°
2026-05-05 20:56 49.38584 0.28276 34900 ft 434 kts 165°
2026-05-05 20:56 49.32739 0.30606 34901 ft 434 kts 165°
2026-05-05 20:57 49.26903 0.32996 34901 ft 434 kts 163°
2026-05-05 20:57 49.22028 0.35075 34902 ft 435 kts 163°
2026-05-05 20:58 49.15255 0.37933 34899 ft 435 kts 163°
2026-05-05 20:58 49.09420 0.40381 34897 ft 435 kts 163°
2026-05-05 20:59 49.04571 0.42410 34891 ft 435 kts 163°
2026-05-05 20:59 48.97737 0.45266 34891 ft 436 kts 164°
2026-05-05 21:00 48.91884 0.47700 34891 ft 437 kts 164°
2026-05-05 21:00 48.86058 0.50122 34891 ft 437 kts 164°
2026-05-05 21:01 48.80183 0.52557 34891 ft 437 kts 163°
2026-05-05 21:01 48.74290 0.54923 34891 ft 437 kts 165°
2026-05-05 21:02 48.68397 0.57213 34890 ft 437 kts 165°
2026-05-05 21:02 48.62499 0.59517 34890 ft 438 kts 165°
2026-05-05 21:03 48.56599 0.61818 34891 ft 438 kts 165°
2026-05-05 21:03 48.50733 0.64107 34890 ft 438 kts 164°
2026-05-05 21:04 48.44856 0.66511 34890 ft 438 kts 164°
2026-05-05 21:04 48.38975 0.68911 34889 ft 438 kts 164°
2026-05-05 21:05 48.33084 0.71299 34890 ft 438 kts 164°
2026-05-05 21:05 48.27199 0.73676 34891 ft 438 kts 164°
2026-05-05 21:06 48.21306 0.76026 34891 ft 438 kts 165°
2026-05-05 21:06 48.15406 0.78342 34890 ft 438 kts 165°
2026-05-05 21:07 48.09502 0.80657 34889 ft 438 kts 165°
2026-05-05 21:07 48.03606 0.82967 34890 ft 438 kts 165°
2026-05-05 21:08 47.97710 0.85271 34874 ft 438 kts 165°
2026-05-05 21:08 47.91811 0.87573 34871 ft 439 kts 165°
2026-05-05 21:09 47.86898 0.89485 34878 ft 439 kts 165°
2026-05-05 21:09 47.80991 0.91777 34878 ft 439 kts 165°
2026-05-05 21:10 47.75080 0.94068 34879 ft 439 kts 165°
2026-05-05 21:10 47.69173 0.96349 34880 ft 439 kts 165°
2026-05-05 21:11 47.63251 0.98631 34879 ft 439 kts 166°
2026-05-05 21:11 47.57377 1.00892 34883 ft 439 kts 166°
2026-05-05 21:12 47.51431 1.03173 34879 ft 439 kts 166°
2026-05-05 21:12 47.45509 1.05439 34877 ft 439 kts 166°
2026-05-05 21:13 47.39508 1.06453 34877 ft 439 kts 180°
2026-05-05 21:13 47.33402 1.06263 34870 ft 439 kts 181°
2026-05-05 21:14 47.27299 1.06088 34876 ft 439 kts 181°
2026-05-05 21:14 47.21202 1.05938 34880 ft 438 kts 181°
2026-05-05 21:15 47.15103 1.05798 34875 ft 438 kts 181°
2026-05-05 21:15 47.09002 1.05656 34880 ft 438 kts 181°
2026-05-05 21:16 47.02906 1.05515 34882 ft 438 kts 181°
2026-05-05 21:16 46.96809 1.05282 34878 ft 439 kts 182°
2026-05-05 21:17 46.90709 1.05003 34880 ft 437 kts 182°
2026-05-05 21:17 46.84626 1.04742 34879 ft 437 kts 182°
2026-05-05 21:18 46.78546 1.04483 34879 ft 438 kts 182°
2026-05-05 21:18 46.72448 1.04222 34880 ft 438 kts 182°
2026-05-05 21:19 46.66404 1.03967 34883 ft 437 kts 181°
2026-05-05 21:19 46.60338 1.03715 34872 ft 437 kts 182°
2026-05-05 21:20 46.54244 1.03456 34891 ft 437 kts 182°
2026-05-05 21:20 46.48206 1.04386 34895 ft 438 kts 168°
2026-05-05 21:21 46.42270 1.06442 34901 ft 439 kts 167°
2026-05-05 21:21 46.36330 1.08468 34898 ft 438 kts 168°
2026-05-05 21:22 46.30388 1.10451 34910 ft 438 kts 168°
2026-05-05 21:22 46.24444 1.12422 34909 ft 438 kts 168°
2026-05-05 21:23 46.18496 1.14394 34917 ft 439 kts 168°
2026-05-05 21:23 46.12548 1.16370 34918 ft 438 kts 168°
2026-05-05 21:24 46.06604 1.18330 34929 ft 438 kts 168°
2026-05-05 21:24 46.00662 1.20283 34930 ft 438 kts 168°
2026-05-05 21:25 45.94725 1.22229 34929 ft 436 kts 169°
2026-05-05 21:25 45.88797 1.24170 34930 ft 437 kts 169°
2026-05-05 21:26 45.82871 1.26098 34928 ft 437 kts 169°
2026-05-05 21:26 45.76943 1.28030 34931 ft 437 kts 169°
2026-05-05 21:27 45.71019 1.29966 34935 ft 436 kts 169°
2026-05-05 21:27 45.65103 1.31890 34936 ft 437 kts 169°
2026-05-05 21:28 45.59174 1.33814 34937 ft 437 kts 169°
2026-05-05 21:28 45.53247 1.35735 34939 ft 436 kts 169°
2026-05-05 21:29 45.47335 1.37647 34944 ft 436 kts 169°
2026-05-05 21:29 45.41448 1.39544 34937 ft 436 kts 169°